Location: Ames
(42.0350°N, 93.6200°W)
Time: 17:39:16
(UTC-05:00)

ISS - All Passes

Search period start: 30 August 2016 00:00
Search period end: 09 September 2016 00:00
Orbit: 402 x 406 km, 51.6° (Epoch: 30 August)

Date Brightness Start Highest point End Pass type
(mag) Time Alt. Az. Time Alt. Az. Time Alt. Az.
30 Aug - 07:18:08 10° SSE 07:19:47 13° SE 07:21:27 10° E daylight
30 Aug - 08:52:35 10° WSW 08:55:51 74° NNW 08:59:08 10° NE daylight
30 Aug - 10:30:15 10° WNW 10:32:45 20° NNW 10:35:15 10° NE daylight
30 Aug - 12:08:00 10° NW 12:10:08 16° N 12:12:16 10° NE daylight
30 Aug - 13:44:15 10° NW 13:47:19 35° NNE 13:50:22 10° E daylight
30 Aug - 15:20:46 10° WNW 15:23:45 32° SW 15:26:43 10° SSE daylight
31 Aug - 08:00:13 10° SW 08:03:26 59° SE 08:06:41 10° ENE daylight
31 Aug - 09:37:18 10° W 09:40:07 25° NNW 09:42:55 10° NE daylight
31 Aug - 11:15:22 10° NW 11:17:24 15° N 11:19:28 10° NE daylight
31 Aug - 12:51:56 10° NW 12:54:43 25° NNE 12:57:30 10° ENE daylight
31 Aug - 14:28:09 10° WNW 14:31:25 63° SW 14:34:39 10° SE daylight
01 Sep - 07:08:11 10° SSW 07:11:06 30° SE 07:14:02 10° ENE daylight
01 Sep - 08:44:27 10° W 08:47:31 36° NNW 08:50:37 10° NE daylight
01 Sep - 10:22:32 10° NW 10:24:41 16° N 10:26:50 10° NE daylight
01 Sep - 11:59:35 10° NW 12:02:04 19° NNE 12:04:32 10° ENE daylight
01 Sep - 13:35:42 10° NW 13:38:59 70° NNE 13:42:16 10° ESE daylight
01 Sep - 15:13:16 10° W 15:15:05 14° SW 15:16:53 10° SSW daylight
02 Sep - 06:16:43 10° S 06:18:50 16° SE 06:21:00 10° E daylight
02 Sep - 07:51:45 10° WSW 07:55:00 60° NNW 07:58:16 10° NE daylight
02 Sep - 09:29:34 10° WNW 09:31:58 18° NNW 09:34:22 10° NE daylight
02 Sep - 11:07:10 10° NW 11:09:22 16° N 11:11:34 10° NE daylight
02 Sep - 12:43:20 10° NW 12:46:29 40° NNE 12:49:37 10° E daylight
02 Sep - 14:20:02 10° WNW 14:22:50 26° SW 14:25:37 10° SSE daylight
03 Sep - 06:59:17 10° SW 07:02:32 74° SE 07:05:50 10° ENE daylight
03 Sep - 08:36:36 10° WNW 08:39:18 23° NNW 08:42:00 10° NE daylight
03 Sep - 10:14:35 10° NW 10:16:38 15° N 10:18:41 10° NE daylight
03 Sep - 11:51:00 10° NW 11:53:54 27° NNE 11:56:46 10° E daylight
03 Sep - 13:27:19 10° WNW 13:30:30 50° SW 13:33:41 10° SE daylight
04 Sep - 06:07:07 10° SSW 06:10:10 37° SE 06:13:15 10° ENE visible
04 Sep - 07:43:41 10° W 07:46:40 32° NNW 07:49:40 10° NE daylight
04 Sep - 09:21:48 10° NW 09:23:53 16° N 09:25:59 10° NE daylight
04 Sep - 10:58:40 10° NW 11:01:15 21° NNE 11:03:49 10° ENE daylight
04 Sep - 12:34:48 10° NW 12:38:06 85° NE 12:41:22 10° ESE daylight
04 Sep - 14:13:00 10° WSW 14:14:06 11° SW 14:15:11 10° SSW daylight
05 Sep - 05:15:24 10° S 05:17:53 20° SE 05:20:21 10° E visible
05 Sep - 06:50:54 10° WSW 06:54:06 50° NNW 06:57:20 10° NE daylight
05 Sep - 08:28:51 10° NW 08:31:09 17° N 08:33:27 10° NE daylight
05 Sep - 10:06:15 10° NW 10:08:33 17° N 10:10:49 10° NE daylight
05 Sep - 11:42:24 10° NW 11:45:36 48° NNE 11:48:47 10° ESE daylight
05 Sep - 13:19:17 10° W 13:21:52 21° SW 13:24:26 10° S daylight
06 Sep - 04:24:54 10° SE 04:25:38 11° SE 04:26:23 10° ESE visible
06 Sep - 05:58:20 10° SW 06:01:37 90° NW 06:04:55 10° NE visible
06 Sep - 07:35:51 10° WNW 07:38:26 21° NNW 07:41:03 10° NE daylight
06 Sep - 09:13:44 10° NW 09:15:48 16° N 09:17:53 10° NE daylight
06 Sep - 10:50:03 10° NW 10:53:01 31° NNE 10:56:00 10° E daylight
06 Sep - 12:26:26 10° WNW 12:29:33 40° SW 12:32:38 10° SSE daylight
07 Sep - 05:06:03 10° SW 05:09:12 47° SE 05:12:23 10° ENE visible
07 Sep - 06:42:53 10° W 06:45:47 28° NNW 06:48:42 10° NE daylight
07 Sep - 08:20:59 10° NW 08:23:02 15° N 08:25:06 10° NE daylight
07 Sep - 09:57:42 10° NW 10:00:23 22° NNE 10:03:04 10° ENE daylight
07 Sep - 11:33:52 10° WNW 11:37:09 78° SW 11:40:25 10° SE daylight
08 Sep - 04:14:08 10° SSW 04:16:52 24° SE 04:19:35 10° ENE visible
08 Sep - 05:50:03 10° WSW 05:53:11 42° NNW 05:56:21 10° NE visible
08 Sep - 07:28:04 10° NW 07:30:17 17° N 07:32:30 10° NE daylight
08 Sep - 09:05:18 10° NW 09:07:40 18° NNE 09:10:02 10° ENE daylight
08 Sep - 10:41:25 10° NW 10:44:40 57° NNE 10:47:54 10° ESE daylight
08 Sep - 12:18:35 10° W 12:20:51 17° SW 12:23:06 10° S daylight
